Tracking 31023 objects as of 19-Jul-2025
HD Live streaming from Space Station
objects crossing your sky now

DELTA 1 DEB

Track DELTA 1 DEB now!
10-day predictions


NORAD ID: 40768
Int'l Code: 1976-077GM
Perigee: 1,372.6 km
Apogee: 1,455.9 km
Inclination: 101.4 °
Period: 113.9 minutes
Semi major axis: 7785 km
RCS: Unknown
Launch date: July 29, 1976
Source: United States (US)
Launch site: AIR FORCE WESTERN TEST RANGE (AFWTR)

Note: This is SATELLITE DEBRIS
Your satellite tracking list
Your tracking list is empty




NASA's NSSDC Master Catalog

Two Line Element Set (TLE):
1 40768U 76077GM  25195.16324896  .00000261  00000-0  16595-2 0  9990
2 40768 101.3664 178.2722 0053511 354.6517   5.3985 12.63846018536343
Source of the keplerian elements: AFSPC